[Date Prev][Date Next][Thread Prev][Thread Next] - [Date Index][Thread Index][Author Index]
2 Line ISS Keps 10-4
- Subject: [sarex] 2 Line ISS Keps 10-4
- From: "Dave Larsen PhD" <doc@xxxxxxxxxxx>
- Date: Tue, 3 Oct 2006 19:28:09 -0700
ISS
1 25544U 98067A 06276.97028935 .00020243 00000-0 12773-3 0 7930
2 25544 051.6374 347.0703 0012850 057.2301 306.7786 15.76531553450328
----
Sent via sarex@amsat.org. Opinions expressed are those of the author.
Not an AMSAT member? Join now to support the amateur satellite program!
Subscription settings: http://amsat.org/mailman/listinfo/sarex
AMSAT Home